When you browse on this site, cookies collect data to enhance your experience and personalize the content and advertising you see.
Visit our Privacy Policy to learn more. By continuing to use the site, you agree to this use of cookies and data.
  • In Latvia
  • List of Countries
  • For 7 days
  • Water Temperature
  • Weather Map
  • Weather Widgets
  • user-avatar
    Login

    Hourly Weather Shusha

    Today, 18 October, Friday

    Time Temperature Precipitation Wind Pressure Humidity
    00:00 +12°C° 0 mm 1 mps 663 mmHg 70%
    01:00 +12°C° 0 mm 1 mps 662 mmHg 68%
    02:00 +11°C° 0 mm 0 mps 662 mmHg 67%
    03:00 +11°C° 0 mm 0 mps 662 mmHg 65%
    04:00 +10°C° 0 mm 0 mps 662 mmHg 63%
    05:00 +10°C° 0 mm 0 mps 662 mmHg 61%
    06:00 +10°C° 0 mm 0 mps 662 mmHg 58%
    07:00 +13°C° 0 mm 1 mps 662 mmHg 53%
    08:00 +15°C° 0 mm 1 mps 663 mmHg 48%
    09:00 +18°C° 0 mm 1 mps 663 mmHg 43%
    10:00 +19°C° 0 mm 1 mps 663 mmHg 42%
    11:00 +20°C° 0 mm 2 mps 663 mmHg 41%
    12:00 +21°C° 0 mm 2 mps 663 mmHg 41%
    13:00 +20°C° 0 mm 2 mps 663 mmHg 43%
    14:00 +20°C° 0 mm 2 mps 662 mmHg 45%
    15:00 +20°C° 0 mm 2 mps 662 mmHg 47%
    16:00 +20°C° 0 mm 1 mps 661 mmHg 54%
    17:00 +18°C° 0 mm 1 mps 661 mmHg 61%
    18:00 +15°C° 0 mm 1 mps 661 mmHg 67%
    19:00 +15°C° 0 mm 1 mps 661 mmHg 66%
    20:00 +15°C° 0 mm 1 mps 661 mmHg 64%
    21:00 +14°C° 0 mm 1 mps 661 mmHg 62%
    22:00 +14°C° 0 mm 1 mps 661 mmHg 60%
    23:00 +14°C° 0 mm 1 mps 661 mmHg 58%

    Tomorrow, 19 October, Saturday

    Time Temperature Precipitation Wind Pressure Humidity
    00:00 +14°C° 0 mm 1 mps 661 mmHg 56%
    01:00 +14°C° 0 mm 1 mps 661 mmHg 55%
    02:00 +13°C° 0 mm 1 mps 661 mmHg 54%
    03:00 +13°C° 0 mm 1 mps 660 mmHg 53%
    04:00 +13°C° 0 mm 1 mps 661 mmHg 53%
    05:00 +13°C° 0 mm 1 mps 661 mmHg 52%
    06:00 +13°C° 0 mm 1 mps 661 mmHg 51%
    07:00 +15°C° 0 mm 1 mps 662 mmHg 48%
    08:00 +18°C° 0 mm 1 mps 662 mmHg 44%
    09:00 +20°C° 0 mm 1 mps 663 mmHg 40%
    10:00 +21°C° 0 mm 1 mps 663 mmHg 40%
    11:00 +21°C° 0 mm 2 mps 663 mmHg 39%
    12:00 +21°C° 0 mm 2 mps 663 mmHg 38%
    13:00 +21°C° 0 mm 2 mps 663 mmHg 41%
    14:00 +21°C° 0 mm 2 mps 662 mmHg 43%
    15:00 +21°C° 0 mm 2 mps 662 mmHg 45%
    16:00 +19°C° 0.1 mm 2 mps 662 mmHg 51%
    17:00 +18°C° 0.1 mm 1 mps 661 mmHg 58%
    18:00 +15°C° 0.1 mm 0 mps 661 mmHg 64%
    19:00 +14°C° 0.1 mm 0 mps 661 mmHg 65%
    20:00 +14°C° 0.1 mm 0 mps 661 mmHg 67%
    21:00 +14°C° 0.1 mm 1 mps 662 mmHg 68%
    22:00 +13°C° 0.1 mm 0 mps 662 mmHg 70%
    23:00 +13°C° 0.1 mm 0 mps 662 mmHg 71%

    Day after tomorrow, 20 October, Sunday

    Time Temperature Precipitation Wind Pressure Humidity
    00:00 +12°C° 0.1 mm 0 mps 662 mmHg 73%
    01:00 +12°C° 0 mm 0 mps 662 mmHg 74%
    02:00 +12°C° 0 mm 0 mps 662 mmHg 75%
    03:00 +11°C° 0 mm 0 mps 661 mmHg 76%
    04:00 +11°C° 0 mm 0 mps 662 mmHg 77%
    05:00 +11°C° 0 mm 0 mps 662 mmHg 78%
    06:00 +11°C° 0 mm 0 mps 662 mmHg 79%
    07:00 +12°C° 0 mm 0 mps 663 mmHg 72%
    08:00 +15°C° 0 mm 1 mps 663 mmHg 64%
    09:00 +16°C° 0 mm 1 mps 664 mmHg 57%
    10:00 +18°C° 0 mm 1 mps 664 mmHg 53%
    11:00 +18°C° 0 mm 2 mps 664 mmHg 49%
    12:00 +19°C° 0 mm 3 mps 664 mmHg 44%
    13:00 +19°C° 0 mm 3 mps 664 mmHg 45%
    14:00 +19°C° 0 mm 2 mps 663 mmHg 47%
    15:00 +18°C° 0 mm 2 mps 663 mmHg 48%
    16:00 +17°C° 0 mm 2 mps 663 mmHg 53%
    17:00 +16°C° 0 mm 2 mps 663 mmHg 58%
    18:00 +14°C° 0 mm 1 mps 662 mmHg 64%
    19:00 +14°C° 0 mm 1 mps 663 mmHg 65%
    20:00 +13°C° 0 mm 1 mps 663 mmHg 66%
    21:00 +13°C° 0 mm 1 mps 663 mmHg 67%
    22:00 +12°C° 0 mm 1 mps 663 mmHg 66%
    23:00 +12°C° 0 mm 1 mps 663 mmHg 66%

    21 October, Monday

    Time Temperature Precipitation Wind Pressure Humidity
    00:00 +12°C° 0 mm 1 mps 663 mmHg 65%
    01:00 +12°C° 0 mm 1 mps 663 mmHg 62%
    02:00 +11°C° 0 mm 1 mps 663 mmHg 59%
    03:00 +11°C° 0 mm 1 mps 663 mmHg 56%
    04:00 +11°C° 0 mm 1 mps 663 mmHg 55%
    05:00 +11°C° 0 mm 1 mps 663 mmHg 54%
    06:00 +10°C° 0 mm 1 mps 663 mmHg 54%
    07:00 +12°C° 0 mm 1 mps 663 mmHg 49%
    08:00 +14°C° 0 mm 1 mps 664 mmHg 45%
    09:00 +15°C° 0 mm 1 mps 665 mmHg 41%
    10:00 +16°C° 0 mm 1 mps 665 mmHg 39%
    11:00 +17°C° 0 mm 2 mps 664 mmHg 37%
    12:00 +18°C° 0 mm 2 mps 664 mmHg 35%
    13:00 +18°C° 0 mm 2 mps 664 mmHg 35%
    14:00 +17°C° 0 mm 2 mps 664 mmHg 35%
    15:00 +17°C° 0 mm 2 mps 663 mmHg 35%
    16:00 +16°C° 0 mm 2 mps 663 mmHg 38%
    17:00 +15°C° 0 mm 1 mps 663 mmHg 42%
    18:00 +13°C° 0 mm 1 mps 662 mmHg 46%
    19:00 +13°C° 0 mm 1 mps 662 mmHg 47%
    20:00 +12°C° 0 mm 1 mps 662 mmHg 48%
    21:00 +12°C° 0 mm 1 mps 662 mmHg 50%
    22:00 +11°C° 0 mm 1 mps 662 mmHg 51%
    23:00 +11°C° 0 mm 1 mps 662 mmHg 51%

    22 October, Tuesday

    Time Temperature Precipitation Wind Pressure Humidity
    00:00 +11°C° 0 mm 1 mps 662 mmHg 52%
    01:00 +11°C° 0 mm 1 mps 662 mmHg 53%
    02:00 +10°C° 0 mm 1 mps 662 mmHg 54%
    03:00 +10°C° 0 mm 1 mps 662 mmHg 55%
    04:00 +10°C° 0 mm 1 mps 662 mmHg 55%
    05:00 +10°C° 0 mm 1 mps 662 mmHg 55%
    06:00 +9°C° 0 mm 1 mps 662 mmHg 55%
    07:00 +11°C° 0 mm 1 mps 663 mmHg 51%
    08:00 +13°C° 0 mm 1 mps 663 mmHg 46%
    09:00 +14°C° 0 mm 1 mps 664 mmHg 41%
    10:00 +15°C° 0 mm 1 mps 664 mmHg 40%
    11:00 +16°C° 0 mm 2 mps 664 mmHg 39%
    12:00 +17°C° 0 mm 2 mps 664 mmHg 37%
    13:00 +17°C° 0 mm 2 mps 663 mmHg 39%
    14:00 +17°C° 0 mm 2 mps 663 mmHg 41%
    15:00 +17°C° 0 mm 2 mps 662 mmHg 43%
    16:00 +15°C° 0 mm 2 mps 662 mmHg 50%
    17:00 +14°C° 0 mm 1 mps 662 mmHg 57%
    18:00 +11°C° 0 mm 0 mps 662 mmHg 63%
    19:00 +12°C° 0 mm 1 mps 661 mmHg 64%
    20:00 +12°C° 0 mm 1 mps 661 mmHg 64%
    21:00 +11°C° 0 mm 1 mps 661 mmHg 64%
    22:00 +11°C° 0 mm 1 mps 661 mmHg 64%
    23:00 +11°C° 0 mm 1 mps 661 mmHg 64%

    23 October, Wednesday

    Time Temperature Precipitation Wind Pressure Humidity
    00:00 +11°C° 0 mm 1 mps 661 mmHg 64%
    01:00 +10°C° 0 mm 1 mps 661 mmHg 65%
    02:00 +10°C° 0 mm 1 mps 661 mmHg 65%
    03:00 +10°C° 0 mm 1 mps 661 mmHg 66%
    04:00 +10°C° 0 mm 1 mps 661 mmHg 66%
    05:00 +10°C° 0 mm 1 mps 660 mmHg 67%
    06:00 +9°C° 0 mm 1 mps 660 mmHg 67%
    07:00 +11°C° 0 mm 1 mps 661 mmHg 61%
    08:00 +13°C° 0 mm 1 mps 662 mmHg 55%
    09:00 +15°C° 0 mm 1 mps 662 mmHg 49%
    10:00 +16°C° 0 mm 1 mps 662 mmHg 48%
    11:00 +17°C° 0 mm 2 mps 662 mmHg 46%
    12:00 +18°C° 0 mm 2 mps 662 mmHg 44%
    13:00 +18°C° 0 mm 2 mps 662 mmHg 45%
    14:00 +18°C° 0 mm 2 mps 662 mmHg 46%
    15:00 +18°C° 0 mm 2 mps 661 mmHg 48%
    16:00 +16°C° 0 mm 2 mps 661 mmHg 54%
    17:00 +15°C° 0 mm 1 mps 661 mmHg 59%
    18:00 +13°C° 0 mm 1 mps 661 mmHg 65%
    19:00 +12°C° 0 mm 0 mps 661 mmHg 67%
    20:00 +11°C° 0 mm 0 mps 661 mmHg 68%
    21:00 +11°C° 0 mm 0 mps 662 mmHg 69%
    22:00 +11°C° 0 mm 0 mps 662 mmHg 71%
    23:00 +10°C° 0 mm 0 mps 662 mmHg 72%
    Show more